TimeCST,TemperatureF,Dew PointF,Humidity,Sea Level PressureIn,VisibilityMPH,Wind Direction,Wind SpeedMPH,Gust SpeedMPH,PrecipitationIn,Events,Conditions,WindDirDegrees,DateUTC
12:15 AM,53.2,47.3,80,29.75,10.0,SSW,16.1,-,N/A,,Clear,200,2013-02-11 06:15:00
12:35 AM,53.1,45.0,74,29.76,10.0,SSW,17.3,24.2,N/A,,Clear,210,2013-02-11 06:35:00
12:55 AM,52.7,42.4,68,29.76,10.0,SSW,19.6,-,N/A,,Clear,210,2013-02-11 06:55:00
1:15 AM,52.9,39.0,59,29.76,10.0,SW,19.6,27.6,N/A,,Clear,220,2013-02-11 07:15:00
1:35 AM,52.7,36.0,53,29.77,10.0,SW,21.9,27.6,N/A,,Clear,220,2013-02-11 07:35:00
1:55 AM,51.8,32.7,48,29.78,10.0,SW,28.8,36.8,N/A,,Clear,220,2013-02-11 07:55:00
2:15 AM,50.7,32.4,49,29.79,10.0,SW,24.2,31.1,N/A,,Clear,230,2013-02-11 08:15:00
2:35 AM,49.6,32.5,52,29.80,10.0,SW,18.4,26.5,N/A,,Clear,230,2013-02-11 08:35:00
2:55 AM,48.9,32.5,53,29.81,10.0,SW,21.9,34.5,N/A,,Clear,230,2013-02-11 08:55:00
3:15 AM,47.3,33.4,59,29.82,10.0,WSW,17.3,27.6,N/A,,Clear,250,2013-02-11 09:15:00
3:35 AM,46.0,33.1,61,29.83,10.0,WSW,21.9,26.5,N/A,,Clear,250,2013-02-11 09:35:00
3:55 AM,44.6,32.5,63,29.85,10.0,WSW,21.9,27.6,N/A,,Clear,240,2013-02-11 09:55:00
4:15 AM,43.0,32.0,65,29.85,10.0,WSW,16.1,21.9,N/A,,Clear,240,2013-02-11 10:15:00
4:35 AM,42.6,29.7,60,29.87,10.0,WSW,27.6,36.8,N/A,,Clear,240,2013-02-11 10:35:00
4:55 AM,41.9,29.7,62,29.88,10.0,WSW,23.0,35.7,N/A,,Clear,240,2013-02-11 10:55:00
5:15 AM,41.4,29.5,63,29.89,10.0,SW,21.9,28.8,N/A,,Clear,230,2013-02-11 11:15:00
5:35 AM,40.8,29.3,64,29.89,10.0,SW,21.9,28.8,N/A,,Clear,220,2013-02-11 11:35:00
5:55 AM,40.5,28.9,64,29.90,10.0,SW,20.7,27.6,N/A,,Clear,220,2013-02-11 11:55:00
6:15 AM,40.1,28.9,64,29.92,10.0,SW,19.6,27.6,N/A,,Clear,230,2013-02-11 12:15:00
6:35 AM,39.4,27.3,62,29.93,10.0,SW,24.2,34.5,N/A,,Clear,230,2013-02-11 12:35:00
6:55 AM,39.6,27.1,61,29.94,10.0,WSW,19.6,32.2,N/A,,Mostly Cloudy,240,2013-02-11 12:55:00
7:15 AM,39.6,28.0,63,29.96,10.0,WSW,21.9,28.8,N/A,,Overcast,240,2013-02-11 13:15:00
7:35 AM,39.9,28.4,63,29.96,10.0,SW,18.4,24.2,N/A,,Overcast,230,2013-02-11 13:35:00
7:55 AM,40.1,28.4,63,29.97,10.0,SW,18.4,25.3,N/A,,Overcast,230,2013-02-11 13:55:00
8:15 AM,40.6,28.6,62,29.97,10.0,SW,15.0,21.9,N/A,,Mostly Cloudy,220,2013-02-11 14:15:00
8:35 AM,41.5,29.5,62,29.97,10.0,SW,16.1,25.3,N/A,,Mostly Cloudy,230,2013-02-11 14:35:00
8:55 AM,41.5,28.6,60,29.98,10.0,SW,19.6,26.5,N/A,,Mostly Cloudy,220,2013-02-11 14:55:00
9:15 AM,41.9,29.1,61,29.98,10.0,SW,17.3,27.6,N/A,,Overcast,230,2013-02-11 15:15:00
9:35 AM,43.0,30.9,62,29.99,10.0,SW,19.6,29.9,N/A,,Overcast,220,2013-02-11 15:35:00
9:55 AM,43.0,30.4,61,30.01,10.0,SW,18.4,31.1,N/A,,Overcast,230,2013-02-11 15:55:00
10:15 AM,43.0,30.2,61,30.02,10.0,SW,25.3,33.4,N/A,,Overcast,230,2013-02-11 16:15:00
10:35 AM,43.5,30.0,59,30.02,10.0,SW,25.3,29.9,N/A,,Overcast,230,2013-02-11 16:35:00
10:55 AM,44.2,30.4,58,30.02,10.0,WSW,24.2,32.2,N/A,,Overcast,240,2013-02-11 16:55:00
11:15 AM,43.5,30.2,59,30.02,10.0,SW,25.3,29.9,N/A,,Mostly Cloudy,230,2013-02-11 17:15:00
11:35 AM,44.4,30.6,58,30.02,10.0,SW,25.3,31.1,N/A,,Overcast,230,2013-02-11 17:35:00
11:55 AM,45.0,30.6,57,30.02,10.0,SW,25.3,28.8,N/A,,Overcast,230,2013-02-11 17:55:00
12:15 PM,44.6,29.7,56,30.02,10.0,WSW,23.0,31.1,N/A,,Overcast,240,2013-02-11 18:15:00
12:55 PM,45.5,30.6,56,30.01,10.0,SW,24.2,27.6,N/A,,Overcast,230,2013-02-11 18:55:00
1:15 PM,45.1,30.4,56,30.02,10.0,SW,20.7,26.5,N/A,,Overcast,230,2013-02-11 19:15:00
1:35 PM,47.1,31.1,54,30.02,10.0,SW,21.9,27.6,N/A,,Mostly Cloudy,230,2013-02-11 19:35:00
1:55 PM,47.1,30.2,52,30.02,10.0,WSW,18.4,29.9,N/A,,Mostly Cloudy,240,2013-02-11 19:55:00
2:15 PM,47.7,30.7,52,30.03,10.0,SW,21.9,26.5,N/A,,Overcast,230,2013-02-11 20:15:00
2:55 PM,47.8,29.3,49,30.03,10.0,WSW,20.7,28.8,N/A,,Scattered Clouds,250,2013-02-11 20:55:00
3:15 PM,48.2,29.3,48,30.04,10.0,WSW,19.6,23.0,N/A,,Scattered Clouds,250,2013-02-11 21:15:00
3:35 PM,47.3,30.6,52,30.04,10.0,WSW,18.4,-,N/A,,Mostly Cloudy,240,2013-02-11 21:35:00
3:55 PM,47.5,31.1,53,30.04,10.0,WSW,21.9,25.3,N/A,,Scattered Clouds,240,2013-02-11 21:55:00
4:55 PM,46.2,31.1,56,30.05,10.0,WSW,13.8,20.7,N/A,,Scattered Clouds,250,2013-02-11 22:55:00
5:15 PM,45.0,31.5,59,30.05,10.0,WSW,10.4,-,N/A,,Clear,250,2013-02-11 23:15:00
5:35 PM,44.2,31.5,61,30.05,10.0,WSW,15.0,-,N/A,,Scattered Clouds,240,2013-02-11 23:35:00
5:55 PM,43.3,30.9,62,30.06,10.0,WSW,11.5,-,N/A,,Scattered Clouds,240,2013-02-11 23:55:00
6:15 PM,42.3,30.9,64,30.07,10.0,WSW,10.4,-,N/A,,Clear,240,2013-02-12 00:15:00
6:35 PM,41.0,30.9,67,30.07,10.0,WSW,9.2,-,N/A,,Clear,250,2013-02-12 00:35:00
6:55 PM,40.5,30.6,68,30.08,10.0,WSW,8.1,-,N/A,,Clear,240,2013-02-12 00:55:00
7:15 PM,38.8,30.2,71,30.09,10.0,WSW,6.9,-,N/A,,Clear,250,2013-02-12 01:15:00
7:35 PM,38.7,30.2,72,30.09,10.0,WNW,3.5,-,N/A,,Clear,290,2013-02-12 01:35:00
7:55 PM,39.4,30.0,69,30.09,10.0,West,3.5,-,N/A,,Clear,260,2013-02-12 01:55:00
8:15 PM,38.7,29.8,71,30.10,10.0,Calm,Calm,-,N/A,,Clear,0,2013-02-12 02:15:00
8:35 PM,35.2,29.1,78,30.11,10.0,West,4.6,-,N/A,,Clear,260,2013-02-12 02:35:00
8:55 PM,36.7,30.0,77,30.11,10.0,SW,3.5,-,N/A,,Clear,220,2013-02-12 02:55:00
9:15 PM,37.9,29.5,72,30.12,10.0,SW,8.1,-,N/A,,Clear,230,2013-02-12 03:15:00
9:35 PM,36.5,29.3,75,30.12,10.0,WSW,8.1,-,N/A,,Clear,240,2013-02-12 03:35:00
9:55 PM,36.7,29.7,76,30.12,10.0,WSW,8.1,-,N/A,,Clear,240,2013-02-12 03:55:00
10:15 PM,36.5,29.5,76,30.12,10.0,WSW,9.2,-,N/A,,Clear,250,2013-02-12 04:15:00
10:35 PM,36.1,29.3,76,30.13,10.0,SW,8.1,-,N/A,,Clear,230,2013-02-12 04:35:00
10:55 PM,36.0,29.1,76,30.13,10.0,WSW,8.1,-,N/A,,Clear,250,2013-02-12 04:55:00
11:15 PM,34.9,28.4,77,30.13,10.0,WSW,6.9,-,N/A,,Clear,250,2013-02-12 05:15:00
11:55 PM,33.8,27.9,79,30.14,10.0,West,4.6,-,N/A,,Clear,270,2013-02-12 05:55:00